Voltar ao catálogo

SIT-HSE

AtivoCiênciaSSO
NORAD 61763·PAYLOAD·🇷🇺 Russia

Lançado Nov 4, 2024 de Vostochny Cosmodrome

Loading…

Próximas Passagens (próximas 24 horas)

TLE

AtualizadoSource: Space-Track

Época: Sep 14, 2026, 10:51 UTC

1 61763U 24199AE  26257.45233954  .00038677  00000-0  49681-3 0  9997
2 61763  97.2793 135.4977 0002363 344.1216  15.9966 15.59014932151465

Acompanhe SIT-HSE em tempo real com AllMySat

Download on the App Store